Regional Weather Roundup
Issued by NWS

Home | Current Version | Previous Version | Graphics & Text | Print | Product List | Glossary Off
Versions: 1 2 3 4 5 6 7 8 9 10 11 12 13 14 15 16 17 18 19 20 21 22 23 24 25 26 27 28 29 30 31 32 33 34 35 36 37 38 39 40 41 42 43 44 45 46 47 48 49 50

000
ASUS43 KLOT 231210
RWRIL

ILLINOIS REGIONAL WEATHER ROUNDUP
NATIONAL WEATHER SERVICE CHICAGO/ROMEOVILLE IL
600 AM CST SUN NOV 23 2014

NOTE: "FAIR" INDICATES FEW OR NO CLOUDS BELOW 12,000 FEET WITH NO
SIGNIFICANT WEATHER AND/OR OBSTRUCTIONS TO VISIBILITY.

* THESE STATIONS ARE NOT UNDER NWS QUALITY CONTROL. THEY ALSO MAY NOT
  REPORT WEATHER SUCH AS PRECIPITATION OR FOG.

ILZ001-002-007-009-015-016-024-231300-
NORTHWEST ILLINOIS

CITY           SKY/WX    TMP DP  RH WIND       PRES   REMARKS
MOLINE         CLOUDY    51  47  86 S10       29.66F
6HR MIN TEMP:  51; 6HR MAX TEMP:  53;

STERLING*      CLOUDY    50  46  87 S6        29.70R
SAVANNA*       CLOUDY    51  48  90 S8        29.67S
$$

ILZ003-004-008-010-011-017-018-231300-
NORTH CENTRAL ILLINOIS

CITY           SKY/WX    TMP DP  RH WIND       PRES   REMARKS
ROCKFORD       CLOUDY    48  46  93 S9        29.72F
6HR MIN TEMP:  48; 6HR MAX TEMP:  50; 6HR PCP: TRACE;

FREEPORT*      CLOUDY    48  47  95 S14       29.69F FOG
ROCHELLE*      CLOUDY    46  45  96 S12       29.71F
DE KALB*       CLOUDY    45  43  93 S12       29.73F
PERU*          CLOUDY    48  43  82 S12       29.74S
$$

ILZ005-006-012>014-019>023-231300-
NORTHEAST ILLINOIS

CITY           SKY/WX    TMP DP  RH WIND       PRES   REMARKS
CHICAGO-OHARE  CLOUDY    48  42  80 S9        29.74F
6HR MIN TEMP:  48; 6HR MAX TEMP:  52;

CHICAGO-MIDWAY CLOUDY    51  43  74 S10       29.76F
6HR MIN TEMP:  50; 6HR MAX TEMP:  52;

AURORA         MOCLDY    46  41  82 S9        29.75S
6HR MIN TEMP:  45; 6HR MAX TEMP:  52;

LANSING*       CLOUDY    48  42  80 S14       29.78F
JOLIET*        CLOUDY    50  41  71 S9        29.76S
WAUKEGAN       CLOUDY    49  44  83 S10       29.72F
6HR MIN TEMP:  49; 6HR MAX TEMP:  50; 6HR PCP: TRACE;

DUPAGE AIRPORT MOCLDY    47  42  83 S10       29.74F
6HR MIN TEMP:  47; 6HR MAX TEMP:  50;

KANKAKEE*      CLOUDY    48  42  79 S14G20    29.79S
WHEELING       CLOUDY    48  43  82 S9        29.76F
6HR MIN TEMP:  48; 6HR MAX TEMP:  52;

MORRIS*        CLOUDY    47  43  87 S9        29.75S
ROMEOVILLE*    CLOUDY    48  41  76 S12       29.76S
NORTHERLY ISL    N/A     50  41  71 SW12        N/A
$$

LMZ740>746-231300-
SOUTHERN LAKE MICHIGAN

STATION/POSITION SKY/WX   TEMP    WIND        PRES    VSBY  WAVE
                          AIR SEA DIR/SP/G                  HT/PER
                          (F)     (DEG/KT/KT) (MB)    (MI)  (FT/S)
SOUTHERN BUOY              45 43  170/ 17/ 21 1008.2F         3/ 4
WAUKEGAN HARBOR            50     210/ 12/ 16   N/A
HARRISON CRIB              49     180/ 21/ 23   N/A
BURNHAM HARBOR             50     180/ 10/ 16   N/A
CALUMET HARBOR             50     170/ 10/ 14 1006.9S
MICHIGAN CITY              49     140/ 14/ 19   N/A
$$

ILZ025>027-034>036-040-047-049-050-058-095>099-231300-
WEST-CENTRAL ILLINOIS

CITY           SKY/WX    TMP DP  RH WIND       PRES   REMARKS
QUINCY         LGT RAIN  51  48  89 S13       29.67S FOG
GALESBURG*     CLOUDY    48  46  91 SE6       29.69S
MACOMB*        CLOUDY    48  46  93 S8        29.71S
JACKSONVILLE*  LGT RAIN  54  46  73 S15G21    29.72F
PITTSFIELD*    CLOUDY    53  46  77 S13       29.71S
$$

ILZ028>032-037-038-041>044-048-051>054-059>061-231300-
CENTRAL ILLINOIS

CITY           SKY/WX    TMP DP  RH WIND       PRES   REMARKS
PONTIAC        CLOUDY    48  44  84 S17       29.75F
BLOOMINGTON    CLOUDY    47  44  89 S15       29.77F
DECATUR        CLOUDY    50  43  77 S15       29.79S
PEORIA         MOCLDY    51  43  74 S13       29.73S
6HR MIN TEMP:  51; 6HR MAX TEMP:  54;

LACON*         CLOUDY    50  42  73 S8        29.71F
LINCOLN*       CLOUDY    51  45  77 S9        29.76R
SPRINGFIELD    CLOUDY    54  45  71 S18G28    29.75R
6HR MIN TEMP:  51; 6HR MAX TEMP:  54;

TAYLORVILLE    CLOUDY    50  43  76 S13       29.76F
$$

ILZ033-039-045-046-055>057-062-063-231300-
EAST-CENTRAL ILLINOIS

CITY           SKY/WX    TMP DP  RH WIND       PRES   REMARKS
CHAMPAIGN      CLOUDY    48  42  80 SE14      29.81S
DANVILLE*      CLOUDY    49  42  77 S12G17    29.81S
RANTOUL*       CLOUDY    47  43  84 SE8       29.81S
MATTOON        MOCLDY    48  41  76 S16       29.80F
PARIS*         PTCLDY    49  43  81 S15       29.84F
$$

ILZ079-100>102-231300-
SOUTHWEST ILLINOIS

CITY           SKY/WX    TMP DP  RH WIND       PRES   REMARKS
BELLEVILLE     CLOUDY    52  49  89 SE6       29.75F
CAHOKIA*       CLOUDY    52  45  77 SE8       29.75F
SPARTA*        CLOUDY    54  49  82 S10       29.78F
$$

ILZ064>066-069>071-074>076-080>082-084>086-088>090-092>094-231300-
SOUTH-CENTRAL ILLINOIS

CITY           SKY/WX    TMP DP  RH WIND       PRES   REMARKS
CARBONDALE     CLOUDY    54  46  74 SE9       29.80F
6HR MIN TEMP:  51; 6HR MAX TEMP:  55;

CAIRO*         CLOUDY    58  49  73 SE9       29.80F
EFFINGHAM*     CLOUDY    49  39  68 SE9       29.82F
MARION         CLOUDY    55  48  76 SE8       29.81F
MT. VERNON     CLOUDY    52  43  71 SE7       29.82F
CENTRALIA*     CLOUDY    52  43  73 SE12      29.79F
SALEM*           N/A     52  43  73 SE7       29.81F
METROPOLIS*    CLOUDY    55  47  76 SE5       29.82F
$$

ILZ067-068-072-073-078-083-087-091-231300-
SOUTHEAST ILLINOIS

CITY           SKY/WX    TMP DP  RH WIND       PRES   REMARKS
LAWRENCEVILLE  PTCLDY    50  41  71 S14       29.87F
FLORA*         PTCLDY    49  42  75 SE12      29.83F
FAIRFIELD*     CLOUDY    52  43  72 SE9       29.83F
HARRISBURG*    CLOUDY    50  46  84 E7        29.85S
ROBINSON*      PTCLDY    50  41  70 S12       29.87F
CARMI*         CLOUDY    50  44  81 SE10      29.86F
$$

ABBREVIATIONS USED IN REMARKS
   TC - TEMPERATURE IN CELSIUS
  WCI - WIND CHILL INDEX
   HX - HEAT INDEX
  VSB - VISIBILITY
$$



USA.gov is the U.S. government's official web portal to all federal, state and local government web resources and services.